File timestamp: Thu Aug 11 03:00:00 2016, Internal temp: 33.1878662109375
1470884401, 0.0484054684638977, -0.00937396846711636, -0.0157160665839911, 33890, 32581, 23176, -56.7986602783203
1470884402, 0.0429853424429893, -0.00959976948797703, -0.0164875015616417, 33896, 32578, 23183, NaN
1470884403, 0.0369915217161179, -0.00962370168417692, -0.0168714821338654, 33901, 32574, 23170, NaN
1470884404, 0.0310668125748634, -0.0103514082729816, -0.0173629317432642, 33882, 32574, 23182, NaN
1470884405, 0.0242551621049643, -0.0109895514324307, -0.0174985062330961, 33888, 32565, 23185, NaN
1470884406, 0.0182285215705633, -0.0107061443850398, -0.0167935155332088, 33890, 32578, 23172, NaN
1470884407, 0.0128129860386252, -0.0107024218887091, -0.0157596059143543, 33893, 32568, 23177, NaN
1470884408.008, 0.00776809034869075, -0.0114488871768117, -0.0158053953200579, 33892, 32568, 23165, NaN
1470884409.008, 0.00365984416566789, -0.0116821238771081, -0.015665715560317, 33895, 32568, 23178, NaN
1470884409.008, -0.00025807972997427, -0.0118925664573908, -0.0155266067013144, 33902, 32585, 23167, NaN
1470884410.016, -0.00416738679632545, -0.012407454662025, -0.0147950500249863, 33892, 32579, 23175, NaN
1470884411.016, -0.00686333468183875, -0.012463154271245, -0.015041102655232, 33882, 32575, 23172, NaN
1470884412.016, -0.00952895637601614, -0.0124694220721722, -0.0156074948608875, 33895, 32579, 23178, NaN
1470884413.016, -0.0132222818210721, -0.0122591210529208, -0.016007773578167, 33883, 32561, 23184, NaN
1470884413.016, -0.0171295590698719, -0.0122543396428227, -0.0167121309787035, 33892, 32574, 23175, NaN
1470884414.022, -0.0211736988276243, -0.0119274137541652, -0.0172564759850502, 33897, 32571, 23176, NaN
1470884415.022, -0.0244161039590836, -0.0115106254816055, -0.016866035759449, 33895, 32569, 23174, NaN
1470884416.022, -0.0270160119980574, -0.0122590539976954, -0.0168442148715258, 33887, 32587, 23179, NaN
1470884417.022, -0.0288627818226814, -0.012515495531261, -0.0169104170054197, 33891, 32568, 23171, NaN
1470884418.022, -0.0299806501716375, -0.0131597490981221, -0.0164771433919668, 33884, 32584, 23185, NaN
1470884419.022, -0.0304400902241468, -0.012151813134551, -0.015718761831522, 33890, 32567, 23174, NaN
1470884420.022, -0.0295517724007368, -0.01186519023031, -0.0157243218272924, 33891, 32560, 23174, NaN
1470884421.022, -0.0284721590578556, -0.0121826371178031, -0.0158494040369987, 33885, 32581, 23175, NaN
1470884422.022, -0.0276968386024237, -0.0121311601251364, -0.0155039569362998, 33891, 32578, 23175, NaN
1470884423.022, -0.0268279537558556, -0.0120607493445277, -0.0149897811934352, 33892, 32576, 23173, NaN
1470884424.022, -0.0257748831063509, -0.0120568685233593, -0.0154013279825449, 33889, 32580, 23182, NaN
1470884425.022, -0.0246167741715908, -0.0120624676346779, -0.0148790385574102, 33895, 32586, 23167, NaN
1470884426.022, -0.0236125476658344, -0.0128485709428787, -0.0143384365364909, 33892, 32580, 23166, NaN
1470884427.022, -0.0227518323808908, -0.0132197728380561, -0.0147266276180744, 33890, 32581, 23179, NaN
1470884428.022, -0.0220572371035814, -0.0141397658735514, -0.0155644677579403, 33900, 32582, 23171, NaN
1470884429.022, -0.0216467417776585, -0.0148384505882859, -0.0155659578740597, 33887, 32577, 23182, NaN
1470884430.022, -0.0206510778516531, -0.0154807865619659, -0.0160950943827629, 33897, 32581, 23183, NaN
1470884431.022, -0.0186193622648716, -0.0153500754386187, -0.016536021605134, 33892, 32585, 23170, NaN
1470884432.022, -0.0164383798837662, -0.0167222172021866, -0.0175726599991322, 33911, 32586, 23173, NaN
1470884433.022, -0.0151623040437698, -0.0159865207970142, -0.0172909665852785, 33888, 32578, 23179, NaN
1470884434.022, -0.0134145431220531, -0.0164252538233995, -0.017176378518343, 33884, 32581, 23183, NaN
1470884435.032, -0.0108731770887971, -0.0171979870647192, -0.0176087897270918, 33885, 32581, 23175, NaN
1470884436.032, -0.00852876342833042, -0.0169297028332949, -0.017986511811614, 33897, 32569, 23169, NaN
1470884436.032, -0.00617922702804208, -0.017082940787077, -0.0179770495742559, 33888, 32578, 23178, NaN
1470884437.04, -0.00457845348864794, -0.0163663197308779, -0.0182205904275179, 33899, 32568, 23173, NaN
1470884438.04, -0.00294772908091545, -0.0165969207882881, -0.0194759052246809, 33892, 32581, 23170, NaN
1470884439.04, -0.00127607199829072, -0.0167974904179573, -0.0191568229347467, 33888, 32572, 23176, NaN
1470884440.04, 0.000573663040995598, -0.0175357218831778, -0.0202541146427393, 33890, 32576, 23167, NaN
1470884440.04, 0.00203506834805012, -0.0183398816734552, -0.0197147186845541, 33895, 32579, 23171, NaN
1470884441.046, 0.00446300441399217, -0.0186695344746113, -0.0194316450506449, 33892, 32576, 23180, NaN
1470884442.046, 0.00627659866586328, -0.0188455805182457, -0.0198426637798548, 33896, 32573, 23175, NaN
1470884443.046, 0.0080020884051919, -0.0191695317625999, -0.0198590196669102, 33887, 32581, 23175, NaN
1470884444.046, 0.00943865068256855, -0.0194756276905537, -0.0198814067989588, 33898, 32560, 23169, NaN
1470884444.046, 0.0103229498490691, -0.0188946798443794, -0.0201421473175287, 33890, 32575, 23163, NaN
1470884445.052, 0.0106930816546082, -0.0185653623193502, -0.020251365378499, 33897, 32571, 23174, NaN
1470884446.052, 0.0112874777987599, -0.0184834562242031, -0.0208984035998583, 33890, 32574, 23172, NaN
1470884447.052, 0.0124389622360468, -0.0191460642963648, -0.0207289345562458, 33894, 32566, 23179, NaN
1470884448.052, 0.01288858987391, -0.0194839127361774, -0.0200798194855452, 33905, 32566, 23175, NaN
1470884449.052, 0.0133790327236056, -0.0188284292817116, -0.0200528185814619, 33895, 32575, 23179, NaN
1470884450.052, 0.0136479241773486, -0.0186119880527258, -0.020660663023591, 33885, 32577, 23168, NaN
1470884451.052, 0.0136480275541544, -0.0178619716316462, -0.0205416996032, 33885, 32565, 23183, NaN
1470884452.052, 0.0138278240337968, -0.0180252082645893, -0.0208434406667948, 33899, 32579, 23168, NaN
1470884453.052, 0.0138020813465118, -0.0184385497123003, -0.0212417319417, 33894, 32581, 23184, NaN
1470884454.052, 0.0130720408633351, -0.0198153182864189, -0.0210111923515797, 33892, 32572, 23177, NaN
1470884455.052, 0.0117762694135308, -0.0201915223151445, -0.0212481953203678, 33886, 32578, 23171, -62.349796295166
1470884456.052, 0.0103068230673671, -0.0202110093086958, -0.0214650016278028, 33889, 32567, 23172, NaN
1470884457.052, 0.00883057992905378, -0.0199198927730322, -0.021047830581665, 33883, 32575, 23183, NaN
1470884458.052, 0.0072302334010601, -0.0193031542003155, -0.0210202764719725, 33899, 32569, 23165, NaN
1470884459.052, 0.00608613761141896, -0.0179953407496214, -0.0208471678197384, 33897, 32571, 23163, NaN
1470884460.052, 0.00562197575345635, -0.0178163461387157, -0.020725017413497, 33901, 32566, 23168, NaN
1470884461.052, 0.00505193136632442, -0.018216310068965, -0.0213133450597525, 33885, 32577, 23186, NaN
1470884462.062, 0.00419851113110781, -0.0185532122850418, -0.0204625595360994, 33897, 32575, 23169, NaN
1470884463.062, 0.00267808954231441, -0.01847711391747, -0.0216294731944799, 33893, 32572, 23181, NaN
1470884463.062, 0.000742429227102548, -0.0192511919885874, -0.0209604166448116, 33908, 32571, 23167, NaN
1470884464.07, -0.00161419261712581, -0.0191737934947014, -0.0212948471307755, 33894, 32582, 23171, NaN
1470884465.07, 0.000654416275210679, -0.0196357741951942, -0.0216972306370735, 33874, 32582, 23180, NaN
1470884466.07, 0.0114195663481951, -0.0195971261709929, -0.0205635167658329, 33889, 32564, 23177, NaN
1470884467.07, 0.0311806201934814, -0.0198043212294579, -0.0201070383191109, 33889, 32573, 23181, NaN
1470884467.07, 0.0594167374074459, -0.019196143373847, -0.0200818181037903, 33897, 32575, 23176, NaN
1470884468.076, 0.0946174114942551, -0.0189733896404505, -0.0202409438788891, 33895, 32573, 23160, NaN
1470884469.076, 0.133736908435822, -0.0191552396863699, -0.0202710293233395, 33889, 32567, 23177, NaN
1470884470.076, 0.10259985178709, -0.0183773674070835, -0.0200123246759176, 33881, 32579, 23180, NaN
1470884471.076, 0.0630553290247917, -0.0174413006752729, -0.0199561528861523, 33892, 32567, 23180, NaN
1470884471.076, 0.0295898355543613, -0.0176457352936268, -0.0200930703431368, 33896, 32575, 23178, NaN
1470884472.082, 0.00170469982549548, -0.0182298012077808, -0.0201283786445856, 33889, 32573, 23186, NaN
1470884473.082, -0.0210898891091347, -0.0175307039171457, -0.0202525313943624, 33889, 32581, 23171, NaN
1470884474.082, -0.0392725132405758, -0.0170877557247877, -0.0203028507530689, 33891, 32576, 23169, NaN
1470884475.082, -0.0533081740140915, -0.0165373776108027, -0.0203343853354454, 33886, 32569, 23183, NaN
1470884476.082, -0.063645988702774, -0.0163914449512959, -0.0200578775256872, 33893, 32581, 23189, NaN
1470884477.082, -0.0707170888781548, -0.0170935336500406, -0.0197467058897018, 33889, 32577, 23179, NaN
1470884478.082, -0.0749326571822166, -0.0176228452473879, -0.0188557654619217, 33892, 32572, 23179, NaN
1470884479.082, -0.0766822621226311, -0.0183270145207644, -0.0187695436179638, 33893, 32583, 23174, NaN
1470884480.082, -0.0763324573636055, -0.0179747026413679, -0.0179739184677601, 33890, 32581, 23164, NaN
1470884481.082, -0.0742256641387939, -0.0179955083876848, -0.0190715715289116, 33875, 32579, 23179, NaN
1470884482.082, -0.0706793516874313, -0.0175351686775684, -0.0187855754047632, 33884, 32588, 23173, NaN
1470884483.082, -0.0659855455160141, -0.0168111361563206, -0.0183434318751097, 33893, 32568, 23182, NaN
1470884484.082, -0.0604105703532696, -0.0169571992009878, -0.0175211243331432, 33888, 32572, 23172, NaN
1470884485.082, -0.0541951358318329, -0.0175992995500565, -0.0176390167325735, 33882, 32574, 23175, NaN
1470884486.082, -0.0475546382367611, -0.0171908531337976, -0.0178498867899179, 33885, 32578, 23177, NaN
1470884487.082, -0.0406797081232071, -0.0180260743945837, -0.0170770287513733, 33892, 32578, 23178, NaN
1470884488.092, -0.0337369740009308, -0.0178065486252308, -0.0172415282577276, 33891, 32587, 23167, NaN
1470884489.092, -0.0268700215965509, -0.0180170629173517, -0.0171031672507524, 33888, 32581, 23181, NaN
1470884489.092, -0.0202004909515381, -0.0182900857180357, -0.0175161752849817, 33896, 32584, 23173, NaN
1470884490.1, -0.013829336501658, -0.0180034879595041, -0.0166063196957111, 33890, 32572, 23179, NaN
1470884491.1, -0.00783815886825323, -0.0187431834638119, -0.0168761946260929, 33907, 32564, 23178, NaN
1470884492.1, -0.00229064933955669, -0.0182221438735723, -0.0166422724723816, 33890, 32577, 23175, NaN
1470884493.1, 0.00276593444868922, -0.0174916386604309, -0.0163911487907171, 33886, 32578, 23187, NaN
1470884493.1, 0.00729924906045198, -0.0180488862097263, -0.0170539300888777, 33895, 32571, 23172, NaN
1470884494.106, 0.0112903416156769, -0.0176812894642353, -0.0161953959614038, 33905, 32568, 23168, NaN
1470884495.106, 0.0147321345284581, -0.017556119710207, -0.015480893664062, 33891, 32576, 23178, NaN
1470884496.106, 0.0176279377192259, -0.0169115979224443, -0.0169291980564594, 33875, 32572, 23175, NaN
1470884497.106, 0.0199900083243847, -0.0167192183434963, -0.0163549855351448, 33885, 32567, 23164, NaN
1470884498.106, 0.0217887684702873, -0.0163934137672186, -0.0161647740751505, 33890, 32571, 23172, NaN
1470884499.106, 0.0207759942859411, -0.0159405395388603, -0.01555479131639, 33901, 32577, 23179, NaN
1470884500.106, 0.0164750032126904, -0.0156529285013676, -0.0164595991373062, 33887, 32569, 23187, NaN
1470884501.106, 0.0104903392493725, -0.0162218436598778, -0.0162320863455534, 33896, 32567, 23158, NaN
1470884502.106, 0.00340661290101707, -0.0161735285073519, -0.0158879682421684, 33894, 32575, 23175, NaN
1470884503.106, -0.00378591241315007, -0.0160746071487665, -0.0154985813423991, 33893, 32570, 23177, NaN
1470884504.106, -0.0103223547339439, -0.0161616075783968, -0.0155213708058, 33889, 32561, 23161, NaN
1470884505.106, -0.0156661327928305, -0.0165795348584652, -0.015109047293663, 33889, 32574, 23176, NaN
1470884506.106, -0.0195452123880386, -0.0168458446860313, -0.015635235235095, 33888, 32577, 23175, NaN
1470884507.086, -0.0221046712249517, -0.0160554312169552, -0.0156048890203238, 33882, 32580, 23174, NaN
1470884508.086, -0.0230198465287685, -0.0159371010959148, -0.0157409831881523, 33889, 32581, 23175, NaN
1470884509.086, -0.022358026355505, -0.0154391787946224, -0.015642860904336, 33888, 32578, 23174, NaN
1470884510.086, -0.020183065906167, -0.0151987820863724, -0.0153592843562365, 33897, 32589, 23158, -58.3527603149414
1470884511.086, -0.0163257196545601, -0.0155152250081301, -0.0158678870648146, 33901, 32563, 23174, NaN
1470884512.086, -0.0113363694399595, -0.0157490242272615, -0.0160516556352377, 33887, 32580, 23179, NaN
1470884513.086, -0.00585469556972384, -0.0161870084702969, -0.0167167186737061, 33878, 32564, 23186, NaN
1470884514.086, 0.000132755230879411, -0.0156568475067616, -0.0166928693652153, 33885, 32581, 23194, NaN
1470884515.096, 0.00650467909872532, -0.0148417390882969, -0.0162476245313883, 33886, 32573, 23173, NaN
1470884516.096, 0.0130806481465697, -0.0144449546933174, -0.0157672148197889, 33883, 32571, 23173, NaN
1470884517.096, 0.0198383145034313, -0.0145879602059722, -0.0160184297710657, 33890, 32568, 23180, NaN
1470884517.096, 0.0262803584337234, -0.0146850291639566, -0.0154440607875586, 33904, 32569, 23179, NaN
1470884518.104, 0.0327038466930389, -0.0148177333176136, -0.0145350303500891, 33881, 32577, 23172, NaN
1470884519.104, 0.0383323468267918, -0.014604989439249, -0.0143291484564543, 33885, 32574, 23168, NaN
1470884520.104, 0.0429325513541698, -0.0154588092118502, -0.0137638244777918, 33879, 32581, 23181, NaN
1470884521.104, 0.046914242208004, -0.0157002378255129, -0.0137689942494035, 33891, 32576, 23177, NaN
1470884521.104, 0.0499760843813419, -0.0157046597450972, -0.0134955318644643, 33902, 32583, 23170, NaN
1470884522.11, 0.0521669425070286, -0.015641275793314, -0.0135190458968282, 33896, 32576, 23179, NaN
1470884523.11, 0.0536247454583645, -0.0153053663671017, -0.0134998876601458, 33886, 32573, 23189, NaN
1470884524.11, 0.0545640997588634, -0.0157126188278198, -0.0143156452104449, 33903, 32584, 23173, NaN
1470884525.11, 0.0538442507386208, -0.0147455278784037, -0.0143953105434775, 33887, 32587, 23171, NaN
1470884525.11, 0.0521912984549999, -0.0142247546464205, -0.0141347227618098, 33889, 32571, 23186, NaN
1470884526.114, 0.049759067595005, -0.0143297547474504, -0.0145593984052539, 33877, 32571, 23187, NaN
1470884527.114, 0.0466741546988487, -0.01368357706815, -0.0144572202116251, 33885, 32577, 23172, NaN
1470884528.114, 0.0434709377586842, -0.0139465117827058, -0.014867527410388, 33884, 32586, 23181, NaN
1470884529.114, 0.0391650795936584, -0.0139596229419112, -0.0139404097571969, 33892, 32580, 23179, NaN
1470884530.114, 0.0343118570744991, -0.0142859453335404, -0.0138516463339329, 33895, 32577, 23182, NaN
1470884531.114, 0.0292001608759165, -0.0149085475131869, -0.0140712456777692, 33894, 32577, 23171, NaN
1470884532.114, 0.0239455364644527, -0.0139639992266893, -0.0140027357265353, 33893, 32579, 23171, NaN
1470884533.114, 0.018670940771699, -0.0147596700116992, -0.013986979611218, 33884, 32565, 23173, NaN
1470884534.114, 0.0133299315348268, -0.0149294594302773, -0.0135575653985143, 33889, 32581, 23174, NaN
1470884535.114, 0.00834713131189346, -0.0146840224042535, -0.0128510473296046, 33899, 32580, 23171, NaN
1470884536.114, 0.0032580578699708, -0.014829671010375, -0.0114932702854276, 33897, 32575, 23177, NaN
1470884537.114, -0.00186216237489134, -0.0142808267846704, -0.0108405174687505, 33891, 32572, 23177, NaN
1470884538.114, -0.00653049163520336, -0.0138039356097579, -0.0108047956600785, 33891, 32577, 23174, NaN
1470884539.114, -0.0105283362790942, -0.0132517544552684, -0.010315328836441, 33890, 32556, 23171, NaN
1470884540.114, -0.0148925818502903, -0.0128695052117109, -0.0105644697323442, 33904, 32583, 23175, NaN
1470884541.114, -0.0186592936515808, -0.0117186857387424, -0.0115240840241313, 33879, 32577, 23171, NaN
1470884542.124, -0.0221731569617987, -0.0115979658439755, -0.0122867282480001, 33891, 32579, 23168, NaN
1470884543.124, -0.025041313841939, -0.0118659781292081, -0.0126302102580667, 33888, 32576, 23169, NaN
1470884543.124, -0.0274016372859478, -0.0111826797947288, -0.0131174642592669, 33896, 32563, 23167, NaN
1470884544.132, -0.0292862728238106, -0.0105739319697022, -0.0137072056531906, 33885, 32584, 23188, NaN
1470884545.132, -0.0304514691233635, -0.0102084716781974, -0.0143717611208558, 33900, 32584, 23175, NaN
1470884546.132, -0.0313014164566994, -0.0102823488414288, -0.0141222598031163, 33895, 32580, 23178, NaN
1470884547.132, -0.0314962603151798, -0.0109254876151681, -0.0138219390064478, 33896, 32573, 23171, NaN
1470884547.132, -0.0313529595732689, -0.0110010383650661, -0.0135628990828991, 33886, 32575, 23179, NaN
1470884548.138, -0.0307774003595114, -0.0108341258019209, -0.0127787990495563, 33894, 32586, 23183, NaN
1470884549.138, -0.0298911482095718, -0.0114931762218475, -0.0135279912501574, 33890, 32578, 23173, NaN
1470884550.138, -0.0284125450998545, -0.0118899838998914, -0.0141664547845721, 33893, 32578, 23177, NaN
1470884551.138, -0.0270164851099253, -0.0116807846352458, -0.0147974900901318, 33885, 32578, 23190, NaN
1470884552.138, -0.0238818023353815, -0.011084889061749, -0.0145377246662974, 33891, 32584, 23172, NaN
1470884553.138, -0.0165109243243933, -0.0119242118671536, -0.0149977570399642, 33889, 32577, 23181, NaN
1470884554.138, -0.00344353844411671, -0.0116545660421252, -0.0144046954810619, 33893, 32585, 23193, NaN
1470884555.138, 0.0152517622336745, -0.0116316769272089, -0.0137624572962523, 33895, 32573, 23181, NaN
1470884556.138, 0.0390789769589901, -0.0116297584027052, -0.0143640888854861, 33881, 32575, 23170, NaN
1470884557.138, 0.0666248649358749, -0.0111144836992025, -0.0154604595154524, 33892, 32568, 23168, NaN
1470884558.138, 0.0961353704333305, -0.0110907908529043, -0.0151260010898113, 33887, 32585, 23174, NaN
1470884559.138, 0.126579418778419, -0.0121333822607994, -0.0151152955368161, 33894, 32579, 23170, NaN
1470884560.138, 0.0940867811441422, -0.0131854917854071, -0.0149947693571448, 33887, 32571, 23175, NaN
1470884561.138, 0.0562926456332207, -0.0130901718512177, -0.0154843227937818, 33889, 32571, 23179, NaN
1470884562.138, 0.0245154835283756, -0.0128951584920287, -0.0153761832043529, 33894, 32574, 23173, NaN
1470884563.138, -0.00176631868816912, -0.0123514849692583, -0.0155927101150155, 33892, 32578, 23171, NaN
1470884564.138, -0.0230609197169542, -0.0112712970003486, -0.0151486340910196, 33883, 32569, 23184, NaN
1470884565.138, -0.0398610085248947, -0.0104334577918053, -0.015055756084621, 33896, 32582, 23172, -58.6344604492188
1470884566.138, -0.0526417978107929, -0.0101623730733991, -0.0147973280400038, 33887, 32582, 23177, NaN
1470884567.138, -0.0618591122329235, -0.00961635261774063, -0.0150489751249552, 33889, 32577, 23175, NaN
1470884568.138, -0.0679476112127304, -0.00940247066318989, -0.0146160861477256, 33892, 32585, 23158, NaN
1470884569.148, -0.0713192149996758, -0.00992231629788876, -0.0139760440215468, 33888, 32581, 23173, NaN
1470884570.148, -0.0723618194460869, -0.0105739738792181, -0.0138944005593657, 33887, 32582, 23183, NaN
1470884571.148, -0.0714382007718086, -0.0106879509985447, -0.013658108189702, 33888, 32576, 23167, NaN
1470884571.148, -0.0688852369785309, -0.0105084143579006, -0.0135207958519459, 33894, 32582, 23170, NaN
1470884572.156, -0.0650134459137917, -0.0104022203013301, -0.0131834764033556, 33888, 32579, 23165, NaN
1470884573.156, -0.0601067207753658, -0.0101971132680774, -0.0131241176277399, 33888, 32563, 23187, NaN
1470884574.156, -0.0544224269688129, -0.0107509223744273, -0.0133241983130574, 33898, 32581, 23174, NaN
1470884575.156, -0.0481916815042496, -0.0114262336865067, -0.0126011753454804, 33889, 32579, 23175, NaN
1470884575.156, -0.0416199043393135, -0.0114112049341202, -0.0122426897287369, 33874, 32576, 23188, NaN
1470884576.162, -0.0348875857889652, -0.0117702102288604, -0.0119002880528569, 33891, 32570, 23178, NaN
1470884577.162, -0.0281512159854174, -0.0112420869991183, -0.0124531649053097, 33896, 32583, 23168, NaN
1470884578.162, -0.02154441177845, -0.0118522392585874, -0.0130795510485768, 33871, 32576, 23182, NaN
1470884579.162, -0.0151791553944349, -0.0117259072139859, -0.0134061193093657, 33889, 32565, 23187, NaN
1470884579.162, -0.0091471578925848, -0.01174904871732, -0.0131908096373081, 33882, 32576, 23181, NaN
1470884580.166, -0.00352130481041968, -0.0122962025925517, -0.0141609273850918, 33881, 32583, 23179, NaN
1470884581.166, 0.00164284475613385, -0.0118825435638428, -0.0139789143577218, 33896, 32578, 23176, NaN
1470884582.166, 0.00630551250651479, -0.0114052044227719, -0.0133778424933553, 33883, 32577, 23170, NaN
1470884583.166, 0.0104411486536264, -0.0105731058865786, -0.0133054628968239, 33894, 32580, 23172, NaN
1470884583.166, 0.0140368798747659, -0.0104036303237081, -0.0129239885136485, 33883, 32577, 23171, NaN
1470884584.168, 0.0170909855514765, -0.0101226773113012, -0.0129185188561678, 33890, 32574, 23169, NaN
1470884585.168, 0.019611420109868, -0.00968550145626068, -0.0120503036305308, 33892, 32580, 23181, NaN
1470884586.168, 0.0216143690049648, -0.00844439119100571, -0.0120991384610534, 33892, 32577, 23167, NaN
1470884587.168, 0.0222261324524879, -0.00817996915429831, -0.0119784437119961, 33880, 32579, 23192, NaN
1470884588.168, 0.0191944651305676, -0.0085504436865449, -0.0105870719999075, 33893, 32575, 23185, NaN
1470884589.168, 0.0144321098923683, -0.00809024460613728, -0.0107775926589966, 33898, 32580, 23171, NaN
1470884590.168, 0.00888169277459383, -0.00833247508853674, -0.0113688567653298, 33891, 32570, 23173, NaN
1470884591.168, 0.00376269221305847, -0.00787273515015841, -0.0116616040468216, 33904, 32574, 23181, NaN
1470884592.168, -0.00065945863025263, -0.0072974949143827, -0.0106254462152719, 33887, 32570, 23181, NaN
1470884593.168, -0.0045673125423491, -0.00703343376517296, -0.0104550691321492, 33891, 32562, 23177, NaN
1470884594.178, -0.0080743245780468, -0.00685741240158677, -0.0104929422959685, 33896, 32582, 23165, NaN
1470884595.178, -0.00980663206428289, -0.00573346205055714, -0.0108186025172472, 33899, 32566, 23179, NaN
1470884596.178, -0.00971249584108591, -0.00527483550831676, -0.0108672920614481, 33883, 32574, 23181, NaN
1470884596.178, -0.00956788565963507, -0.00540170120075345, -0.0111666237935424, 33878, 32576, 23181, NaN
1470884597.186, -0.00805104337632656, -0.00447371881455183, -0.0115260910242796, 33876, 32568, 23186, NaN
1470884598.186, -0.00644903536885977, -0.00435307156294584, -0.0114150540903211, 33879, 32581, 23180, NaN
1470884599.186, -0.00383220124058425, -0.00368220708332956, -0.010956241749227, 33881, 32580, 23189, NaN
1470884600.186, 1.8924805772258e-05, -0.00389580498449504, -0.0112778823822737, 33908, 32570, 23172, NaN
1470884600.186, 0.00405820086598396, -0.00304240919649601, -0.0114975878968835, 33881, 32572, 23179, NaN
1470884601.192, 0.00810606684535742, -0.00234600878320634, -0.0113279726356268, 33891, 32594, 23176, NaN
1470884602.192, 0.0123675810173154, -0.00319593446329236, -0.010959304869175, 33894, 32571, 23166, NaN
1470884603.192, 0.0168377216905355, -0.00317938020452857, -0.0114829009398818, 33888, 32576, 23181, NaN
1470884604.192, 0.0210867132991552, -0.00292547093704343, -0.0115984873846173, 33890, 32565, 23188, NaN
1470884605.192, 0.0251937843859196, -0.00299816182814538, -0.0123368864879012, 33887, 32567, 23189, NaN
1470884606.192, 0.0288361646234989, -0.00305403117090464, -0.0125495307147503, 33886, 32560, 23179, NaN
1470884607.192, 0.0320727489888668, -0.00328657822683454, -0.0122988065704703, 33887, 32566, 23183, NaN
1470884608.192, 0.0347277112305164, -0.00376621610485017, -0.0125526441261172, 33897, 32569, 23179, NaN
1470884609.192, 0.0368572361767292, -0.0034418364521116, -0.0122444340959191, 33896, 32586, 23183, NaN